COSMOS 2251 DEB, 47074

Orbit data source: Space-Track

COSMOS 2251 DEB, 47074 is space debris in LEO originally from a launch on Wed, 16 Jun 1993 UTC launched from the Plesetsk Missile And Space Complex (PKMTR). The debris from Iridium 33, an American commercial communications satellite, has been tracked extensively since its accidental collision with the defunct Russian satellite Cosmos 2251 in 2009. This event, occurring at high speed in low Earth orbit (LEO), generated thousands of pieces of space debris, significantly increasing the risk of further collisions. The Iridium 33 debris cloud has impacted space traffic management and orbital debris mitigation strategies, making it a subject of ongoing study in space situational awareness.

Loading next visibility...
Identifier
47074, 1993-036BYE
Orbit
LEO
Country
Flag of CISCIS
Related business
Manufacturer
Unknown
Mission
Spacecraft
Bus & Motor
Unknown
Mass
Unknown
Launch date (UTC)
1993-06-16 (33 years ago)
Launch vehicle
Unknown
Launch site
Plesetsk Missile And Space Complex (PKMTR)
Object type
Payload
Rocket body
Debris
Shape & HBR
Unknown shape, 0.1 m
Radar Cross Section
Small (<0.1 m²)

Expand to show TLE details & history
Last TLE update: 20 hours ago

TLE from 20 hours ago
0 COSMOS 2251 DEB
1 47074U 93036BYE 26167.70191068  .00001337  00000-0  41015-3 0  9995
2 47074  74.0916 327.9855 0136072 310.3670  63.3909 14.37485387 53535
Epoch: 2026-06-16T16:50Z
TLE epoch observation values (Epoch: 2026-06-16T16:50:45.082Z)
Latitude
14.5474°
Longitude
174.54627°
Altitude
726.229 km
Speed
7.516 km/s
True Right ascension
22h 08m 49s
True Declination
14° 27' 49"
Sunlit
Object was in daylight at epoch
Visualization orbit readout
Latitude
Unknown
Longitude
Unknown
Altitude
Unknown
Speed
Unknown
Apparent Right ascension
Unknown
Apparent Declination
Unknown
Sunlit
N/A
Visualization observer readout
Local Sidereal Time
23:59:03
Azimuth
Unknown
Elevation
Unknown
Doppler factor
Unknown
Orbital elements
Apogee altitude
861.626 km
Perigee altitude
667.245 km
Semi-major axis
7,142.573 km
Eccentricity
0.01361
Inclination
74.0916°
RAAN
327.9855°
Arg. of periapsis
310.367°
True anomaly
64.79558°
Mean anomaly
63.3909°
Eccentric anomaly
64.09218°
Mean motion
3.59552 °/min
Orbital period
100.12 mins
BSTAR
0.00041015
Loading maneuver chart data...
Computing Atmospheric mass density...

Documentation

Showing up to 5 results
|